W5GED Weather Reports


time (UTC)temp
C
wind
direction
speed
KPH
gust
KPH
rain 1hr
cm
rain 24hr
cm
rain mn
cm
humidity
%
barometer
mb
20260504185517 27 172 4.8 11.3 0.00 0.00 0.00 58 1013.1
20260504184517 27 149 4.8 14.5 0.00 0.00 0.00 59 1013.3
20260504183540 27 155 4.8 11.3 0.00 0.00 0.00 58 1013.3
20260504182517 27 181 6.4 12.9 0.00 0.00 0.00 59 1013.4
20260504181557 27 161 6.4 12.9 0.00 0.00 0.00 58 1013.5
20260504180517 27 171 4.8 11.3 0.00 0.00 0.00 57 1013.6
20260504175518 26 169 6.4 12.9 0.00 0.00 0.00 60 1013.9
20260504174538 26 159 6.4 12.9 0.00 0.00 0.00 61 1014.0
20260504173538 26 171 4.8 9.7 0.00 0.00 0.00 61 1014.1
20260504172518 26 175 4.8 12.9 0.00 0.00 0.00 60 1014.1
20260504171518 26 165 4.8 16.1 0.00 0.00 0.00 60 1014.5
20260504170518 25 176 6.4 14.5 0.00 0.00 0.00 60 1014.5
20260504150517 23 159 4.8 11.3 0.00 0.00 0.00 67 1015.2
20260504140518 22 96 3.2 8.0 0.00 0.00 0.00 67 1015.4
20260504130518 17 154 1.6 4.8 0.00 0.00 0.00 78 1015.2
20260504110517 13 211 1.6 4.8 0.00 0.00 0.00 88 1014.8
20260504100518 14 281 1.6 3.2 0.00 0.00 0.00 86 1015.1
20260504081519 15 220 1.6 1.6 0.00 0.00 0.00 82 1015.7
20260504080519 15 212 0.0 1.6 0.00 0.00 0.00 82 1015.8
20260504050522 17 202 1.6 3.2 0.00 0.00 0.00 72 1017.8
20260504045602 17 200 3.2 3.2 0.00 0.00 0.00 71 1017.7
20260504044522 17 193 1.6 3.2 0.00 0.00 0.00 70 1017.7
20260504043522 17 191 1.6 3.2 0.00 0.00 0.00 69 1017.8
20260504042522 17 194 3.2 3.2 0.00 0.00 0.00 69 1017.9
20260504041522 18 192 1.6 3.2 0.00 0.00 0.00 68 1018.0
20260504040523 18 196 3.2 3.2 0.00 0.00 0.00 67 1017.9
20260504035522 18 202 3.2 3.2 0.00 0.00 0.00 66 1017.8
20260504034543 18 180 3.2 4.8 0.00 0.00 0.00 65 1017.8
20260504033523 19 198 3.2 4.8 0.00 0.00 0.00 64 1017.9
20260504032523 19 200 4.8 4.8 0.00 0.00 0.00 63 1017.9
20260504031523 20 202 4.8 6.4 0.00 0.00 0.00 62 1017.7
20260504030523 20 204 3.2 6.4 0.00 0.00 0.00 61 1017.7
20260504025523 20 201 3.2 6.4 0.00 0.00 0.00 60 1017.6
20260504024543 20 191 3.2 4.8 0.00 0.00 0.00 59 1017.5
20260504023524 20 181 3.2 4.8 0.00 0.00 0.00 58 1017.5
20260504022524 20 194 3.2 4.8 0.00 0.00 0.00 58 1017.5
20260504021524 21 200 3.2 6.4 0.00 0.00 0.00 57 1017.4
20260504020524 21 158 3.2 4.8 0.00 0.00 0.00 56 1017.2
20260504015524 21 140 3.2 4.8 0.00 0.00 0.00 55 1017.2
20260504014519 21 184 3.2 6.4 0.00 0.00 0.00 54 1017.2
20260504013539 22 180 3.2 8.0 0.00 0.00 0.00 53 1017.1
20260504012519 22 181 3.2 8.0 0.00 0.00 0.00 53 1017.1
20260504011519 22 188 3.2 6.4 0.00 0.00 0.00 52 1017.1
20260504010516 22 186 1.6 9.7 0.00 0.00 0.00 51 1017.0
20260504005516 23 182 3.2 8.0 0.00 0.00 0.00 51 1017.0
20260504004516 23 177 3.2 6.4 0.00 0.00 0.00 50 1017.0
20260504003516 23 167 3.2 8.0 0.00 0.00 0.00 49 1017.1
20260504002520 24 184 3.2 8.0 0.00 0.00 0.00 49 1016.9
20260504001520 24 161 3.2 9.7 0.00 0.00 0.00 48 1017.0
20260504000520 25 154 4.8 8.0 0.00 0.00 0.00 47 1017.0
20260503235517 26 170 3.2 8.0 0.00 0.00 0.00 44 1017.0
20260503234557 26 178 3.2 8.0 0.00 0.00 0.00 40 1017.0
20260503233517 26 137 3.2 9.7 0.00 0.00 0.00 40 1017.0
20260503232558 26 116 3.2 8.0 0.00 0.00 0.00 41 1017.1
20260503231517 27 136 3.2 8.0 0.00 0.00 0.00 39 1017.2
20260503230518 26 109 3.2 8.0 0.00 0.00 0.00 38 1017.2
20260503225558 27 75 4.8 9.7 0.00 0.00 0.00 38 1017.2
20260503224538 27 165 4.8 11.3 0.00 0.00 0.00 39 1017.4
20260503223518 27 158 4.8 9.7 0.00 0.00 0.00 39 1017.5
20260503222518 27 178 3.2 11.3 0.00 0.00 0.00 39 1017.5
20260503221518 27 91 4.8 12.9 0.00 0.00 0.00 37 1017.8
20260503220519 28 166 3.2 9.7 0.00 0.00 0.00 37 1017.9
20260503215519 27 122 3.2 8.0 0.00 0.00 0.00 38 1017.8
20260503214519 26 59 6.4 12.9 0.00 0.00 0.00 39 1017.8
20260503213539 27 111 4.8 9.7 0.00 0.00 0.00 38 1018.0
20260503212519 27 105 4.8 12.9 0.00 0.00 0.00 38 1018.3
20260503211519 27 100 3.2 8.0 0.00 0.00 0.00 38 1018.4
20260503210516 27 75 6.4 16.1 0.00 0.00 0.00 38 1018.5
20260503205516 26 46 3.2 9.7 0.00 0.00 0.00 39 1018.6
20260503204537 27 81 6.4 12.9 0.00 0.00 0.00 39 1018.7
20260503203520 27 165 6.4 12.9 0.00 0.00 0.00 39 1018.9
20260503202519 27 157 4.8 9.7 0.00 0.00 0.00 39 1019.0
20260503201517 27 78 3.2 9.7 0.00 0.00 0.00 40 1019.2
20260503200517 27 73 6.4 25.7 0.00 0.00 0.00 41 1019.4
20260503195557 26 58 4.8 14.5 0.00 0.00 0.00 41 1019.6
20260503194520 27 69 4.8 16.1 0.00 0.00 0.00 40 1019.7
20260503193520 26 175 3.2 8.0 0.00 0.00 0.00 41 1019.8
20260503192518 26 108 6.4 11.3 0.00 0.00 0.00 41 1020.0
20260503191538 26 72 4.8 11.3 0.00 0.00 0.00 41 1020.2
20260503190518 26 185 3.2 9.7 0.00 0.00 0.00 41 1020.3